Regional Weather Roundup
Issued by NWS Newport/Morehead, NC

Current Version | Previous Version | Text Only | Print | Product List | Glossary Off
Versions: 1 2 3 4 5 6 7 8 9 10 11 12 13 14 15 16 17 18 19 20 21 22 23 24 25 26 27 28 29 30 31 32 33 34 35 36 37 38 39 40 41 42 43 44 45 46 47 48 49 50

000
ASUS42 KMHX 181524
RWRMHX
WEATHER ROUNDUP FOR EASTERN NORTH CAROLINA
NATIONAL WEATHER SERVICE NEWPORT/MOREHEAD CITY NC
1100 AM EDT SAT APR 18 2015

NOTE: "FAIR" INDICATES FEW OR NO CLOUDS BELOW 12,000 FEET
WITH NO SIGNIFICANT WEATHER AND/OR OBSTRUCTIONS TO VISIBILITY

NCZ015>017-031-032-045>047-102-103-181600-
NORTH COAST

CITY           SKY/WX    TMP DP  RH WIND       PRES   REMARKS
EDENTON        PTSUNNY   74  66  75 SW6       30.00R
ELIZABETH CITY MOSUNNY   76  65  68 NE3       29.99S
KITTY HAWK     PTSUNNY   74  64  70 NE7       29.99R
MANTEO         CLOUDY    72  64  77 N6        30.00S

$$

NCZ045>047-081-094-103-104-181600-
CENTRAL COAST

CITY           SKY/WX    TMP DP  RH WIND       PRES   REMARKS
FRISCO         CLOUDY    64  61  90 SE3       30.00R
SWANQUARTER      N/A     73 N/A N/A NE2       29.97S

$$

NCZ095-097-098-100-101-181600-
SOUTHERN COAST

CITY           SKY/WX    TMP DP  RH WIND       PRES   REMARKS
BEAUFORT       CLOUDY    69  67  93 SW3       30.01R
CEDAR ISLAND     N/A     70 N/A N/A E3        30.03S
JACKSONVILLE   LGT RAIN  69  67  93 S3        30.00S
PINEY ISLAND   CLOUDY   N/A N/A N/A CALM      30.00R
WILMINGTON     CLOUDY    69  66  90 NE6       30.01S


$$

NCZ011>013-027>030-043-044-078>080-089-090>093-098-181600-
COASTAL PLAIN

CITY           SKY/WX    TMP DP  RH WIND       PRES   REMARKS
AHOSKIE        MOSUNNY   74  63  68 N6        30.00S
CLINTON        CLOUDY    73  67  83 CALM      30.02R
ELIZABETHTOWN  CLOUDY    69  68  96 CALM      30.02R
GOLDSBORO      PTSUNNY   74  64  71 CALM      29.99R
GREENVILLE     PTSUNNY   72  64  78 NE3       30.02S
HAVELOCK       PTSUNNY   73  66  78 CALM      30.01R
KENANSVILLE    CLOUDY    70  65  85 CALM      30.03R
KINSTON        PTSUNNY   75  64  69 N3        30.01R
NEW BERN       CLOUDY    75  65  70 CALM      30.01R
RICHLANDS      CLOUDY    70  64  83 S5        30.02S
ROCKY MOUNT    PTSUNNY   72  64  76 SE5       30.01R
WASHINGTON     PTSUNNY   72  65  79 NE3       30.01R
WHITEVILLE     LGT RAIN  68  66  94 NE5       30.01R

$$

AMZ130-135-150-152-154-156-158-170-250-252-270-ANZ085-086-088-633-658-670-181600-
MARINE OBSERVATIONS

STATION/POSITION TIME  TEMP    WIND        PRES    WAVE   SWELL
                       AIR SEA DIR/SP/G            HT/PER HT/PER
                 (UTC) (F)     (DEG/KT/KT) (MB)    (FT/S) (FT/S)
CHESAPEAKE LIGHT 1500   60      10/ 11/ 11 1016.7
64 E VA BEACH    1450   58 55  330/  6/  8 1015.3    4/ 9   3/ 9
DUCK             1500   64 54   10/  4/  4 1014.9
2 E DUCK         1411      54                N/A     3/ 7   2/11
10 NE DUCK       NOT AVBL
OREGON INLET     1500   67 60   40/  3/  4 1015.7
HATTERAS CG      1400   69 67   30/  4/  5 1015.3
DIAMOND BUOY     1450   70 75   20/  8/ 10 1015.8    5/ 8   5/ 8
CAPE LOOKOUT     1500   68      60/  3/  3 1016.0
BEAUFORT LAB     1500   68 63  210/  2/  3 1015.4
27 SE WRIGHTSVLE 1500   67 73   40/ 14/ 16   N/A
5 SE WRIGHTSVLE  1500   64 63   40/ 10/ 12 1016.1
225 S CAPE HAT   1450   73 74  250/ 10/ 12 1014.8    6/ 8   5/ 8
41 SE CHARLESTON 1450   70 75   10/  8/ 10 1015.1    4/ 8   3/ 8

$$



USA.gov is the U.S. government's official web portal to all federal, state and local government web resources and services.